QPF
0.04 0.04 0.04 0.04 0.04 0.04 0.05 0.06 0.07 0.06 0.06 0.05 0.04 0.03 0.04 0.04 0.04 0.04 0.05 0.04 0.04 0.08 0.09 0.08 0.05 0.04 0.04 0.04 0.04 0.04 0.04 0.04 0.04 0.04 0.03 0.02 0.02 0.03 0.03 0.03 0.02 0.02 0.03
0.06 0.06 0.05 0.06 0.05 0.04 0.05 0.08 0.06 0.07 0.09 0.09 0.06 0.04 0.03 0.03 0.04 0.04 0.06 0.06 0.04 0.06 0.08 0.09 0.06 0.06 0.07 0.07 0.06 0.05 0.05 0.05 0.05 0.04 0.02 0.02 0.03 0.03 0.04 0.04 0.04 0.04 0.03
0.09 0.08 0.06 0.06 0.07 0.06 0.08 0.09 0.08 0.09 0.09 0.09 0.07 0.07 0.05 0.04 0.04 0.04 0.06 0.07 0.05 0.05 0.08 0.08 0.07 0.09 0.10 0.11 0.11 0.09 0.07 0.06 0.05 0.05 0.03 0.02 0.03 0.03 0.03 0.03 0.03 0.04 0.03
0.08 0.07 0.07 0.07 0.08 0.07 0.10 0.12 0.12 0.13 0.14 0.11 0.08 0.07 0.06 0.07 0.05 0.05 0.05 0.04 0.05 0.05 0.06 0.07 0.08 0.08 0.08 0.08 0.08 0.09 0.09 0.05 0.03 0.03 0.03 0.03 0.02 0.02 0.02 0.02 0.02 0.03 0.03
0.06 0.05 0.07 0.08 0.06 0.07 0.10 0.07 0.10 0.13 0.13 0.10 0.05 0.06 0.06 0.06 0.07 0.05 0.06 0.05 0.04 0.05 0.06 0.05 0.07 0.06 0.07 0.06 0.06 0.07 0.07 0.06 0.04 0.03 0.04 0.03 0.03 0.03 0.03 0.02 0.03 0.03 0.02
0.05 0.04 0.06 0.07 0.06 0.09 0.09 0.09 0.11 0.12 0.12 0.12 0.06 0.05 0.05 0.05 0.05 0.05 0.05 0.05 0.04 0.04 0.05 0.05 0.06 0.05 0.06 0.07 0.07 0.09 0.09 0.08 0.06 0.04 0.04 0.04 0.04 0.03 0.03 0.02 0.03 0.02 0.02
0.05 0.06 0.05 0.08 0.09 0.10 0.09 0.07 0.08 0.09 0.10 0.10 0.10 0.09 0.06 0.05 0.05 0.05 0.04 0.04 0.03 0.04 0.05 0.06 0.06 0.06 0.07 0.05 0.06 0.06 0.08 0.08 0.08 0.07 0.05 0.04 0.04 0.03 0.02 0.02 0.02 0.02 0.02
0.05 0.05 0.07 0.08 0.09 0.10 0.10 0.09 0.09 0.09 0.09 0.11 0.13 0.11 0.08 0.06 0.05 0.03 0.03 0.03 0.03 0.04 0.05 0.04 0.06 0.07 0.06 0.08 0.06 0.04 0.05 0.06 0.06 0.05 0.04 0.03 0.03 0.03 0.03 0.03 0.03 0.03 0.02
0.06 0.07 0.07 0.07 0.09 0.09 0.10 0.11 0.10 0.10 0.10 0.10 0.12 0.15 0.10 0.07 0.06 0.05 0.03 0.03 0.04 0.06 0.05 0.04 0.04 0.03 0.03 0.08 0.07 0.04 0.03 0.04 0.05 0.05 0.05 0.05 0.05 0.04 0.04 0.04 0.03 0.03 0.03
0.06 0.07 0.07 0.08 0.11 0.10 0.11 0.10 0.09 0.10 0.12 0.12 0.10 0.11 0.09 0.07 0.07 0.07 0.05 0.04 0.05 0.06 0.06 0.05 0.03 0.03 0.03 0.03 0.05 0.04 0.03 0.02 0.03 0.05 0.06 0.06 0.06 0.06 0.05 0.04 0.03 0.02 0.02
0.05 0.07 0.08 0.10 0.11 0.12 0.12 0.13 0.12 0.11 0.11 0.12 0.11 0.10 0.10 0.09 0.08 0.08 0.07 0.07 0.06 0.05 0.05 0.06 0.05 0.05 0.05 0.04 0.06 0.04 0.03 0.03 0.02 0.03 0.05 0.06 0.07 0.08 0.06 0.05 0.05 0.04 0.04
0.05 0.05 0.06 0.09 0.11 0.11 0.10 0.12 0.13 0.12 0.12 0.12 0.10 0.10 0.11 0.11 0.10 0.10 0.10 0.09 0.08 0.07 0.07 0.06 0.06 0.06 0.06 0.06 0.04 0.03 0.03 0.03 0.03 0.03 0.02 0.02 0.04 0.05 0.06 0.06 0.06 0.06 0.06
0.07 0.07 0.06 0.08 0.09 0.08 0.07 0.09 0.10 0.10 0.10 0.10 0.10 0.09 0.09 0.09 0.12 0.11 0.10 0.08 0.07 0.07 0.08 0.06 0.05 0.07 0.05 0.06 0.06 0.02 0.02 0.02 0.03 0.03 0.03 0.02 0.02 0.03 0.03 0.04 0.05 0.06 0.06
0.07 0.07 0.05 0.06 0.08 0.06 0.05 0.07 0.06 0.06 0.05 0.06 0.06 0.08 0.06 0.06 0.08 0.08 0.08 0.08 0.08 0.07 0.07 0.06 0.04 0.04 0.03 0.04 0.05 0.03 0.02 0.03 0.03 0.03 0.04 0.03 0.03 0.04 0.04 0.04 0.04 0.04 0.05
0.06 0.06 0.05 0.04 0.04 0.05 0.05 0.07 0.05 0.05 0.05 0.06 0.05 0.07 0.06 0.06 0.07 0.06 0.07 0.09 0.09 0.09 0.09 0.07 0.06 0.05 0.04 0.04 0.05 0.03 0.04 0.04 0.03 0.03 0.03 0.03 0.04 0.05 0.06 0.05 0.05 0.04 0.03
0.07 0.07 0.07 0.05 0.06 0.06 0.04 0.05 0.05 0.05 0.05 0.06 0.06 0.06 0.07 0.07 0.09 0.08 0.07 0.08 0.08 0.08 0.08 0.07 0.05 0.04 0.05 0.06 0.06 0.05 0.06 0.07 0.06 0.05 0.04 0.04 0.04 0.05 0.06 0.06 0.05 0.04 0.04
0.08 0.08 0.09 0.09 0.08 0.07 0.05 0.04 0.04 0.05 0.05 0.06 0.05 0.06 0.06 0.07 0.08 0.08 0.10 0.09 0.08 0.09 0.09 0.10 0.11 0.09 0.09 0.11 0.10 0.09 0.09 0.08 0.08 0.06 0.05 0.05 0.05 0.06 0.07 0.08 0.07 0.06 0.05
0.06 0.07 0.06 0.06 0.05 0.05 0.05 0.05 0.05 0.06 0.06 0.05 0.06 0.07 0.06 0.07 0.09 0.11 0.12 0.10 0.08 0.08 0.08 0.10 0.11 0.11 0.12 0.12 0.11 0.11 0.10 0.08 0.08 0.07 0.06 0.05 0.05 0.05 0.06 0.06 0.06 0.05 0.05
0.05 0.04 0.04 0.04 0.05 0.05 0.06 0.06 0.06 0.07 0.07 0.06 0.07 0.07 0.05 0.06 0.07 0.08 0.09 0.09 0.09 0.10 0.09 0.08 0.07 0.07 0.08 0.08 0.09 0.09 0.10 0.10 0.08 0.08 0.08 0.06 0.05 0.04 0.04 0.04 0.04 0.05 0.05
0.07 0.06 0.06 0.06 0.06 0.06 0.07 0.06 0.06 0.07 0.07 0.06 0.06 0.05 0.04 0.04 0.05 0.07 0.06 0.07 0.08 0.08 0.09 0.09 0.08 0.07 0.08 0.08 0.09 0.10 0.12 0.11 0.10 0.09 0.08 0.07 0.06 0.04 0.03 0.04 0.03 0.04 0.04
0.06 0.06 0.07 0.06 0.06 0.06 0.06 0.06 0.06 0.05 0.07 0.07 0.05 0.04 0.03 0.03 0.05 0.04 0.04 0.06 0.06 0.06 0.06 0.06 0.05 0.05 0.07 0.09 0.08 0.08 0.10 0.13 0.13 0.12 0.10 0.07 0.06 0.05 0.04 0.04 0.04 0.03 0.04
0.07 0.07 0.09 0.08 0.07 0.05 0.05 0.04 0.04 0.04 0.06 0.07 0.05 0.04 0.02 0.02 0.02 0.02 0.03 0.03 0.04 0.04 0.04 0.05 0.05 0.05 0.06 0.08 0.09 0.10 0.13 0.13 0.11 0.10 0.09 0.08 0.06 0.05 0.04 0.04 0.04 0.04 0.04
0.09 0.08 0.07 0.08 0.07 0.07 0.07 0.04 0.04 0.04 0.05 0.05 0.04 0.03 0.02 0.01 0.02 0.02 0.03 0.03 0.03 0.03 0.04 0.04 0.04 0.04 0.06 0.07 0.09 0.09 0.10 0.10 0.10 0.10 0.09 0.09 0.09 0.07 0.04 0.04 0.05 0.05 0.05
0.07 0.07 0.05 0.05 0.06 0.06 0.05 0.04 0.03 0.04 0.05 0.04 0.03 0.03 0.02 0.02 0.02 0.03 0.03 0.04 0.04 0.03 0.04 0.03 0.04 0.05 0.05 0.07 0.08 0.09 0.10 0.09 0.09 0.10 0.09 0.10 0.09 0.08 0.07 0.07 0.07 0.06 0.06
0.03 0.03 0.03 0.05 0.07 0.05 0.04 0.03 0.03 0.05 0.05 0.04 0.03 0.03 0.03 0.02 0.03 0.03 0.03 0.04 0.04 0.03 0.03 0.03 0.04 0.05 0.06 0.06 0.06 0.07 0.07 0.08 0.08 0.09 0.09 0.09 0.08 0.08 0.08 0.08 0.07 0.07 0.05
0.02 0.01 0.03 0.04 0.03 0.02 0.02 0.03 0.04 0.05 0.05 0.05 0.03 0.02 0.02 0.02 0.02 0.02 0.03 0.04 0.04 0.04 0.03 0.03 0.04 0.04 0.05 0.05 0.05 0.05 0.06 0.08 0.08 0.10 0.10 0.09 0.09 0.09 0.11 0.11 0.10 0.09 0.07
MSLP
1016.51 1016.63 1016.68 1016.66 1016.60 1016.52 1016.44 1016.38 1016.33 1016.29 1016.26 1016.21 1016.17 1016.12 1016.09 1016.11 1016.18 1016.33 1016.53 1016.79 1017.06 1017.35 1017.61 1017.86 1018.09 1018.31 1018.54 1018.78 1019.03 1019.29 1019.55 1019.79 1020.00 1020.18 1020.34 1020.50 1020.67 1020.87 1021.10 1021.35 1021.60 1021.84 1022.03
1016.58 1016.63 1016.62 1016.54 1016.44 1016.32 1016.22 1016.15 1016.11 1016.10 1016.11 1016.11 1016.10 1016.09 1016.08 1016.09 1016.13 1016.21 1016.33 1016.48 1016.65 1016.84 1017.04 1017.25 1017.48 1017.74 1018.02 1018.33 1018.65 1018.98 1019.29 1019.57 1019.80 1020.00 1020.17 1020.33 1020.51 1020.71 1020.95 1021.21 1021.46 1021.70 1021.89
1016.76 1016.73 1016.64 1016.50 1016.34 1016.19 1016.08 1016.01 1015.98 1016.00 1016.03 1016.07 1016.10 1016.11 1016.11 1016.10 1016.10 1016.10 1016.13 1016.18 1016.25 1016.35 1016.48 1016.64 1016.86 1017.13 1017.44 1017.80 1018.18 1018.56 1018.92 1019.23 1019.48 1019.70 1019.88 1020.06 1020.25 1020.47 1020.72 1020.99 1021.26 1021.51 1021.72
1017.05 1016.93 1016.76 1016.55 1016.34 1016.15 1016.02 1015.94 1015.91 1015.94 1015.98 1016.03 1016.07 1016.09 1016.09 1016.06 1016.02 1015.97 1015.93 1015.90 1015.89 1015.92 1015.98 1016.11 1016.30 1016.57 1016.89 1017.27 1017.67 1018.07 1018.44 1018.76 1019.04 1019.26 1019.46 1019.65 1019.86 1020.10 1020.38 1020.68 1020.98 1021.26 1021.49
1017.41 1017.21 1016.96 1016.69 1016.42 1016.19 1016.02 1015.91 1015.87 1015.87 1015.90 1015.93 1015.96 1015.96 1015.95 1015.91 1015.86 1015.79 1015.73 1015.67 1015.63 1015.62 1015.66 1015.75 1015.92 1016.16 1016.46 1016.82 1017.20 1017.57 1017.92 1018.23 1018.49 1018.71 1018.91 1019.11 1019.34 1019.60 1019.91 1020.24 1020.58 1020.90 1021.18
1017.83 1017.56 1017.24 1016.90 1016.59 1016.31 1016.09 1015.93 1015.83 1015.77 1015.74 1015.73 1015.72 1015.70 1015.68 1015.65 1015.62 1015.59 1015.56 1015.53 1015.52 1015.53 1015.58 1015.67 1015.81 1016.01 1016.27 1016.56 1016.88 1017.19 1017.47 1017.72 1017.94 1018.12 1018.30 1018.50 1018.73 1019.00 1019.33 1019.69 1020.07 1020.43 1020.75
1018.28 1017.95 1017.58 1017.20 1016.83 1016.50 1016.22 1015.99 1015.81 1015.67 1015.55 1015.46 1015.39 1015.35 1015.33 1015.33 1015.36 1015.41 1015.48 1015.55 1015.63 1015.72 1015.82 1015.93 1016.06 1016.22 1016.41 1016.61 1016.82 1017.02 1017.20 1017.36 1017.49 1017.61 1017.74 1017.90 1018.10 1018.37 1018.69 1019.06 1019.44 1019.83 1020.18
1018.75 1018.38 1017.98 1017.57 1017.17 1016.79 1016.45 1016.14 1015.86 1015.61 1015.39 1015.21 1015.08 1015.00 1014.99 1015.05 1015.17 1015.35 1015.56 1015.78 1016.01 1016.21 1016.40 1016.56 1016.70 1016.82 1016.93 1017.02 1017.10 1017.17 1017.21 1017.24 1017.26 1017.28 1017.33 1017.42 1017.57 1017.78 1018.06 1018.39 1018.75 1019.12 1019.48
1019.23 1018.86 1018.45 1018.02 1017.60 1017.19 1016.79 1016.41 1016.04 1015.69 1015.37 1015.10 1014.90 1014.80 1014.81 1014.93 1015.16 1015.48 1015.85 1016.25 1016.65 1017.00 1017.30 1017.52 1017.68 1017.77 1017.81 1017.79 1017.74 1017.66 1017.56 1017.45 1017.34 1017.25 1017.19 1017.18 1017.23 1017.36 1017.54 1017.79 1018.08 1018.39 1018.70
1019.73 1019.37 1018.98 1018.56 1018.14 1017.72 1017.29 1016.85 1016.40 1015.97 1015.57 1015.23 1014.98 1014.86 1014.88 1015.06 1015.39 1015.84 1016.38 1016.95 1017.50 1018.00 1018.40 1018.71 1018.89 1018.96 1018.94 1018.83 1018.67 1018.46 1018.22 1017.98 1017.74 1017.52 1017.35 1017.23 1017.17 1017.17 1017.23 1017.35 1017.51 1017.71 1017.92
1020.25 1019.92 1019.56 1019.18 1018.78 1018.37 1017.93 1017.47 1016.99 1016.50 1016.05 1015.66 1015.37 1015.24 1015.28 1015.50 1015.89 1016.44 1017.09 1017.78 1018.46 1019.07 1019.57 1019.94 1020.15 1020.22 1020.16 1019.99 1019.74 1019.43 1019.09 1018.74 1018.40 1018.09 1017.81 1017.58 1017.40 1017.26 1017.18 1017.15 1017.16 1017.20 1017.27
1020.79 1020.50 1020.18 1019.85 1019.50 1019.12 1018.70 1018.25 1017.77 1017.28 1016.81 1016.40 1016.09 1015.94 1015.97 1016.21 1016.63 1017.21 1017.92 1018.67 1019.41 1020.09 1020.64 1021.05 1021.28 1021.35 1021.28 1021.08 1020.78 1020.42 1020.03 1019.62 1019.22 1018.84 1018.49 1018.18 1017.90 1017.65 1017.43 1017.25 1017.09 1016.96 1016.86
1021.35 1021.10 1020.83 1020.55 1020.25 1019.92 1019.56 1019.16 1018.71 1018.25 1017.79 1017.39 1017.08 1016.91 1016.92 1017.12 1017.51 1018.07 1018.75 1019.50 1020.24 1020.91 1021.48 1021.89 1022.14 1022.22 1022.15 1021.95 1021.65 1021.29 1020.89 1020.47 1020.06 1019.67 1019.29 1018.93 1018.59 1018.27 1017.95 1017.63 1017.33 1017.05 1016.78
1021.92 1021.71 1021.48 1021.25 1021.01 1020.75 1020.46 1020.12 1019.74 1019.33 1018.92 1018.54 1018.23 1018.05 1018.01 1018.15 1018.46 1018.94 1019.53 1020.19 1020.86 1021.48 1022.01 1022.41 1022.65 1022.74 1022.68 1022.51 1022.24 1021.92 1021.55 1021.17 1020.80 1020.43 1020.08 1019.73 1019.38 1019.03 1018.66 1018.27 1017.87 1017.47 1017.06
1022.53 1022.34 1022.15 1021.96 1021.77 1021.58 1021.35 1021.09 1020.79 1020.46 1020.10 1019.76 1019.46 1019.25 1019.16 1019.21 1019.41 1019.76 1020.21 1020.74 1021.29 1021.81 1022.27 1022.62 1022.84 1022.93 1022.90 1022.76 1022.55 1022.27 1021.97 1021.66 1021.34 1021.04 1020.75 1020.45 1020.14 1019.82 1019.46 1019.06 1018.63 1018.16 1017.67
1023.18 1023.01 1022.84 1022.68 1022.53 1022.39 1022.23 1022.05 1021.83 1021.57 1021.28 1020.97 1020.69 1020.46 1020.30 1020.26 1020.33 1020.52 1020.82 1021.19 1021.59 1021.99 1022.35 1022.63 1022.82 1022.91 1022.89 1022.79 1022.62 1022.40 1022.16 1021.92 1021.68 1021.45 1021.23 1021.01 1020.78 1020.52 1020.23 1019.88 1019.48 1019.02 1018.51
1023.89 1023.73 1023.57 1023.44 1023.31 1023.21 1023.10 1022.97 1022.82 1022.63 1022.39 1022.13 1021.86 1021.61 1021.41 1021.27 1021.23 1021.28 1021.42 1021.63 1021.88 1022.16 1022.41 1022.62 1022.77 1022.83 1022.82 1022.73 1022.59 1022.41 1022.21 1022.01 1021.82 1021.65 1021.50 1021.36 1021.21 1021.05 1020.85 1020.60 1020.28 1019.89 1019.42
1024.67 1024.52 1024.37 1024.24 1024.13 1024.05 1023.97 1023.89 1023.78 1023.64 1023.46 1023.23 1022.98 1022.72 1022.48 1022.28 1022.14 1022.08 1022.09 1022.17 1022.30 1022.45 1022.61 1022.75 1022.84 1022.87 1022.84 1022.75 1022.61 1022.43 1022.24 1022.04 1021.87 1021.72 1021.61 1021.52 1021.44 1021.36 1021.26 1021.12 1020.92 1020.63 1020.26
1025.50 1025.36 1025.22 1025.10 1025.00 1024.92 1024.85 1024.79 1024.72 1024.61 1024.46 1024.28 1024.05 1023.80 1023.55 1023.32 1023.12 1022.98 1022.90 1022.88 1022.91 1022.98 1023.05 1023.12 1023.15 1023.14 1023.07 1022.94 1022.77 1022.56 1022.34 1022.11 1021.91 1021.74 1021.62 1021.53 1021.49 1021.46 1021.44 1021.40 1021.31 1021.14 1020.89
1026.37 1026.24 1026.11 1025.99 1025.89 1025.81 1025.75 1025.69 1025.63 1025.54 1025.43 1025.27 1025.08 1024.85 1024.62 1024.38 1024.17 1024.00 1023.87 1023.79 1023.75 1023.75 1023.76 1023.76 1023.74 1023.67 1023.54 1023.37 1023.14 1022.87 1022.58 1022.29 1022.02 1021.79 1021.61 1021.49 1021.43 1021.41 1021.42 1021.44 1021.43 1021.37 1021.24
1027.21 1027.11 1027.00 1026.88 1026.78 1026.69 1026.62 1026.56 1026.50 1026.42 1026.33 1026.21 1026.05 1025.87 1025.67 1025.46 1025.27 1025.09 1024.95 1024.85 1024.77 1024.72 1024.67 1024.61 1024.53 1024.40 1024.22 1023.98 1023.68 1023.35 1022.98 1022.61 1022.25 1021.93 1021.67 1021.47 1021.34 1021.28 1021.28 1021.31 1021.34 1021.35 1021.30
1027.99 1027.92 1027.82 1027.72 1027.61 1027.51 1027.43 1027.36 1027.30 1027.23 1027.16 1027.07 1026.96 1026.82 1026.68 1026.52 1026.36 1026.21 1026.07 1025.95 1025.85 1025.76 1025.66 1025.56 1025.41 1025.23 1024.99 1024.69 1024.34 1023.94 1023.50 1023.05 1022.61 1022.20 1021.84 1021.54 1021.33 1021.18 1021.11 1021.10 1021.11 1021.13 1021.13
1028.67 1028.62 1028.55 1028.45 1028.34 1028.24 1028.15 1028.07 1028.00 1027.94 1027.89 1027.83 1027.76 1027.68 1027.59 1027.48 1027.37 1027.25 1027.12 1027.00 1026.88 1026.75 1026.61 1026.45 1026.25 1026.02 1025.73 1025.39 1025.00 1024.56 1024.08 1023.58 1023.08 1022.59 1022.14 1021.75 1021.43 1021.18 1021.01 1020.90 1020.85 1020.83 1020.82
1029.20 1029.19 1029.13 1029.05 1028.95 1028.84 1028.74 1028.66 1028.59 1028.55 1028.51 1028.48 1028.46 1028.42 1028.38 1028.31 1028.24 1028.14 1028.02 1027.88 1027.73 1027.56 1027.38 1027.16 1026.92 1026.65 1026.33 1025.97 1025.57 1025.12 1024.64 1024.13 1023.60 1023.08 1022.57 1022.10 1021.68 1021.33 1021.04 1020.82 1020.66 1020.55 1020.47
1029.61 1029.62 1029.59 1029.52 1029.43 1029.34 1029.24 1029.16 1029.10 1029.06 1029.04 1029.04 1029.04 1029.04 1029.03 1028.99 1028.93 1028.84 1028.71 1028.55 1028.36 1028.15 1027.91 1027.65 1027.37 1027.07 1026.74 1026.38 1025.99 1025.57 1025.12 1024.63 1024.12 1023.60 1023.07 1022.56 1022.07 1021.61 1021.21 1020.86 1020.58 1020.35 1020.16
1029.92 1029.95 1029.94 1029.89 1029.83 1029.75 1029.67 1029.60 1029.55 1029.52 1029.52 1029.53 1029.55 1029.56 1029.56 1029.53 1029.46 1029.35 1029.20 1029.00 1028.77 1028.51 1028.22 1027.92 1027.61 1027.29 1026.96 1026.62 1026.26 1025.88 1025.48 1025.05 1024.59 1024.10 1023.58 1023.05 1022.52 1021.99 1021.49 1021.03 1020.62 1020.26 1019.96
Thickness
5761 5760 5758 5756 5757 5756 5755 5753 5752 5751 5751 5751 5750 5750 5749 5748 5748 5746 5741 5737 5734 5733 5731 5729 5727 5726 5724 5723 5721 5719 5718 5717 5715 5714 5713 5712 5711 5710 5709 5708 5707 5706 5705
5760 5758 5757 5756 5756 5756 5755 5753 5752 5751 5750 5751 5750 5749 5748 5748 5747 5745 5743 5738 5735 5733 5731 5729 5728 5726 5725 5723 5721 5719 5718 5717 5715 5714 5713 5712 5711 5710 5709 5708 5707 5706 5705
5758 5758 5758 5757 5756 5755 5753 5752 5752 5751 5751 5751 5750 5749 5749 5747 5747 5745 5744 5741 5739 5735 5733 5730 5729 5727 5725 5724 5722 5720 5718 5717 5715 5714 5713 5712 5711 5710 5709 5708 5706 5705 5704
5758 5757 5758 5758 5755 5754 5754 5752 5752 5750 5750 5750 5749 5749 5749 5747 5746 5745 5745 5743 5742 5740 5736 5733 5730 5728 5727 5725 5723 5721 5719 5718 5716 5715 5713 5712 5711 5710 5709 5707 5706 5705 5704
5758 5757 5757 5756 5755 5755 5754 5754 5753 5751 5748 5748 5749 5749 5749 5749 5747 5747 5746 5744 5742 5740 5739 5735 5732 5730 5728 5726 5724 5722 5721 5719 5717 5716 5714 5713 5711 5710 5709 5707 5706 5705 5704
5758 5758 5758 5756 5755 5754 5752 5751 5749 5749 5748 5748 5751 5750 5750 5751 5750 5749 5748 5746 5744 5742 5741 5739 5735 5732 5730 5728 5726 5724 5722 5720 5718 5716 5715 5713 5712 5711 5709 5708 5706 5705 5704
5759 5757 5758 5756 5754 5753 5751 5751 5749 5748 5748 5749 5747 5746 5749 5752 5750 5749 5749 5748 5747 5745 5742 5740 5738 5736 5733 5729 5727 5725 5724 5721 5719 5718 5716 5714 5713 5711 5710 5708 5707 5705 5704
5759 5759 5756 5755 5754 5752 5750 5749 5748 5748 5749 5749 5746 5743 5742 5745 5746 5751 5749 5747 5746 5746 5744 5742 5739 5736 5735 5733 5730 5727 5725 5723 5721 5719 5717 5716 5714 5712 5710 5709 5707 5706 5705
5760 5758 5756 5755 5753 5753 5751 5748 5748 5747 5746 5748 5749 5745 5740 5738 5742 5747 5747 5747 5745 5744 5744 5743 5741 5738 5736 5734 5731 5728 5726 5723 5722 5720 5719 5717 5715 5713 5712 5710 5708 5706 5705
5761 5759 5757 5755 5753 5753 5750 5750 5751 5749 5746 5745 5747 5747 5746 5746 5739 5737 5743 5745 5744 5742 5742 5743 5742 5739 5736 5734 5731 5729 5726 5724 5722 5720 5719 5717 5716 5714 5712 5710 5708 5707 5705
5762 5760 5758 5756 5753 5752 5751 5750 5749 5749 5749 5746 5746 5746 5745 5744 5743 5738 5735 5739 5742 5743 5742 5741 5740 5739 5736 5734 5731 5730 5726 5724 5722 5720 5719 5717 5715 5714 5712 5710 5708 5706 5705
5763 5761 5759 5757 5754 5753 5752 5750 5749 5749 5748 5747 5747 5746 5744 5743 5741 5739 5736 5735 5736 5739 5740 5739 5738 5737 5736 5734 5732 5729 5726 5723 5721 5719 5718 5716 5714 5712 5711 5709 5708 5706 5704
5762 5760 5761 5758 5756 5753 5751 5750 5749 5748 5748 5745 5745 5745 5745 5744 5744 5742 5738 5736 5734 5736 5736 5737 5737 5736 5735 5733 5730 5727 5724 5722 5720 5718 5716 5714 5712 5711 5709 5708 5706 5705 5703
5763 5762 5759 5757 5755 5753 5752 5750 5749 5748 5746 5745 5745 5743 5743 5743 5743 5741 5738 5735 5730 5731 5732 5732 5734 5733 5733 5731 5728 5724 5723 5720 5718 5716 5714 5712 5710 5708 5707 5705 5703 5702 5700
5763 5761 5758 5756 5755 5753 5751 5748 5748 5745 5745 5743 5743 5741 5740 5741 5741 5740 5739 5736 5729 5724 5724 5727 5728 5730 5729 5727 5725 5723 5721 5717 5715 5713 5711 5709 5708 5705 5703 5702 5700 5698 5696
5760 5758 5756 5755 5752 5750 5748 5747 5745 5744 5742 5741 5740 5738 5737 5739 5738 5738 5736 5734 5731 5727 5722 5724 5724 5726 5725 5725 5721 5720 5717 5714 5712 5710 5708 5706 5704 5702 5700 5697 5695 5693 5691
5757 5755 5753 5752 5750 5747 5746 5744 5743 5741 5739 5738 5737 5736 5734 5734 5734 5734 5733 5731 5728 5726 5720 5720 5721 5721 5719 5718 5717 5716 5714 5711 5709 5706 5703 5701 5699 5697 5694 5692 5690 5688 5686
5755 5753 5751 5748 5746 5745 5743 5742 5740 5739 5737 5735 5734 5733 5731 5731 5729 5729 5728 5727 5725 5723 5719 5715 5716 5715 5714 5713 5712 5711 5711 5709 5706 5702 5699 5696 5692 5690 5688 5686 5684 5682 5680
5752 5750 5748 5745 5743 5741 5740 5739 5737 5736 5734 5733 5731 5729 5728 5727 5725 5725 5724 5723 5722 5721 5718 5715 5713 5712 5712 5711 5709 5708 5707 5703 5702 5698 5694 5690 5687 5683 5680 5678 5677 5675 5673
5748 5746 5744 5742 5740 5737 5736 5735 5733 5732 5730 5728 5727 5726 5724 5722 5721 5720 5720 5719 5718 5716 5714 5712 5711 5709 5707 5706 5704 5702 5699 5698 5696 5695 5690 5686 5681 5678 5674 5671 5669 5668 5665
5745 5742 5740 5738 5735 5733 5732 5730 5728 5727 5725 5723 5722 5721 5719 5717 5715 5715 5716 5714 5712 5711 5710 5708 5706 5704 5701 5698 5697 5697 5694 5692 5689 5687 5685 5682 5678 5674 5669 5664 5661 5659 5657
5740 5737 5735 5732 5730 5729 5725 5722 5722 5721 5720 5718 5716 5715 5714 5713 5710 5707 5706 5705 5704 5703 5703 5701 5699 5695 5692 5691 5690 5690 5687 5684 5680 5680 5677 5675 5672 5668 5664 5659 5654 5651 5649
5735 5731 5729 5727 5724 5720 5717 5715 5714 5715 5714 5712 5710 5709 5710 5709 5706 5704 5701 5698 5696 5694 5692 5692 5689 5686 5685 5684 5682 5682 5678 5676 5673 5672 5668 5665 5663 5659 5655 5651 5646 5643 5640
5731 5727 5724 5721 5718 5714 5711 5709 5708 5709 5708 5705 5703 5702 5701 5699 5698 5696 5695 5694 5691 5688 5685 5683 5681 5679 5677 5675 5674 5674 5671 5669 5667 5664 5660 5656 5654 5650 5647 5642 5637 5634 5631
5726 5723 5720 5716 5713 5708 5704 5703 5702 5704 5702 5699 5697 5694 5693 5691 5687 5686 5687 5685 5682 5679 5675 5672 5670 5668 5666 5665 5664 5666 5663 5662 5659 5656 5652 5648 5645 5640 5637 5633 5628 5625 5622
5721 5718 5714 5711 5707 5703 5698 5697 5696 5700 5697 5694 5690 5687 5682 5680 5677 5676 5678 5676 5673 5670 5669 5666 5662 5660 5658 5657 5654 5653 5653 5652 5650 5646 5641 5637 5635 5631 5626 5623 5619 5616 5613